User: anonymous   Login
Location: Drayton Valley
(53.2170°N, 114.9830°W)
Time: 17:47:32
(UTC-07:00)
Language:

Cosmos 1302 Rocket - Orbit

View from above orbital plane
View from above orbital plane
View from above satellite
View from above satellite

Ground track
Ground track

The orbit data is extracted from the following two-line orbital elements,

1 12792U 81084B   16339.73550028  .00000018  00000-0  14801-4 0  9991
2 12792  74.0312  33.3487 0013714   0.5318 359.5847 14.37450399847118
Epoch (UTC): 04 December 2016 17:39:07
Eccentricity: 0.0013714
inclination: 74.0312°
perigee height: 757 km
apogee height: 777 km
right ascension of ascending node: 33.3487°
argument of perigee: 0.5318°
revolutions per day: 14.37450399
mean anomaly at epoch: 359.5847°
orbit number at epoch: 84711

The dashed part of the orbit path shows where the satellite is in the earth's shadow,  

DLR